Location: Doussal
(55.6167°N, 116.8333°W)
Time: 08:44:36
(UTC+00:00)

DOVE 4 - Visible Passes

Search period start: 02 December 2023 00:00
Search period end: 12 December 2023 00:00
Orbit: 583 x 785 km, 97.8° (Epoch: 01 December)

Date Brightness Start Highest point End Pass type
(mag) Time Alt. Az. Time Alt. Az. Time Alt. Az.
02 Dec ? 14:27:12 10° NE 14:28:03 10° NE 14:28:53 10° NE visible
03 Dec ? 15:01:28 10° E 15:04:36 18° NE 15:07:38 10° NNE visible
05 Dec ? 14:39:38 10° ENE 14:41:34 12° NE 14:43:27 10° NNE visible
08 Dec ? 14:52:28 10° E 14:55:01 15° NE 14:57:29 10° NNE visible
10 Dec ? 14:31:20 10° NE 14:31:54 10° NE 14:32:29 10° NE visible
11 Dec ? 15:05:24 10° E 15:08:24 18° NE 15:11:19 10° NNE visible
